Weather History for Binghamton, NY

Change the Weather History Date:

Saturday, December 10, 2011

  Actual Average Record
Temperature  
Mean Temperature 27 °F 29 °F  
Max Temperature 33 °F 35 °F 64 °F (1966)
Min Temperature 20 °F 23 °F 1 °F (1968)
Degree Days  
Heating Degree Days 38 36  
Month to date heating degree days 290 344  
Since 1 July heating degree days 1516 1919  
Cooling Degree Days 0 0  
Month to date cooling degree days 0 0  
Year to date cooling degree days 527 381  
Moisture  
Dew Point 18 °F    
Average Humidity 66    
Maximum Humidity 85    
Minimum Humidity 46    
Precipitation  
Precipitation T in 0.10 in 1.07 in (2004)
Month to date precipitation 1.00 1.03  
Year to date precipitation 65.94 37.50  
Snow  
Snow T in 0.50 in 7.90 in (1997)
Month to date snowfall 3.9 5.0  
Since 1 July snowfall 6.7 11.8  
Snow Depth 1.00 in    
Sea Level Pressure  
Sea Level Pressure 30.31 in    
Wind  
Wind Speed 8 mph (NW)    
Max Wind Speed 16 mph    
Max Gust Speed 22 mph    
Visibility 10 miles    
Events Snow    
T = Trace of Precipitation, MM = Missing Value Source: NWS Daily Summary

Daily Weather History Graph

Daily Weather History Graph

Search for Another Location

Airport:

Trip Planner

Search our weather history database for the weather conditions in past years. The results will help you decide how hot, cold, wet, or windy it might be!

Date:

Astronomy

Dec. 10, 2011 Rise Set
Actual Time 7:21 AM EST 4:31 PM EST
Civil Twilight 6:49 AM EST 5:03 PM EST
Nautical Twilight 6:14 AM EST 5:38 PM EST
Astronomical Twilight 5:40 AM EST 6:12 PM EST
Moon 4:43 PM EST (12/10) 7:19 AM EST (12/10)
Length of Visible Light 10h 13m
Length of Day
9h 10m
Full, 100% of the Moon is Illuminated
Dec 10
Full
Dec 17
Last Quarter
Dec 24
New
Jan 1
First Quarter
Jan 9
Full

Hourly Weather History & Observations

Time (EST) Temp. Windchill Dew Point Humidity Pressure Visibility Wind Dir Wind Speed Gust Speed Precip Events Conditions
12:53 AM 33.1 °F 26.9 °F 26.1 °F 75% 30.21 in 10.0 mi WSW 6.9 mph - N/A   Overcast
1:53 AM 32.0 °F 25.6 °F 26.1 °F 79% 30.21 in 10.0 mi WSW 6.9 mph - N/A   Scattered Clouds
2:46 AM 32.0 °F 24.8 °F 26.6 °F 80% 30.17 in 10.0 mi NNW 8.1 mph - N/A   Mostly Cloudy
2:53 AM 30.2 °F 22.6 °F 26.6 °F 86% 30.17 in 10.0 mi NNW 8.1 mph - N/A   Mostly Cloudy
3:00 AM 30.2 °F 22.6 °F 26.6 °F 86% 30.17 in 10.0 mi NNW 8.1 mph - N/A   Mostly Cloudy
3:10 AM 30.2 °F 21.3 °F 26.6 °F 86% 30.17 in 10.0 mi NW 10.4 mph - N/A   Overcast
3:22 AM 30.2 °F 20.8 °F 26.6 °F 86% 30.17 in 10.0 mi NNW 11.5 mph - N/A   Overcast
3:53 AM 30.9 °F 21.7 °F 27.0 °F 85% 30.22 in 7.0 mi NNW 11.5 mph 17.3 mph N/A   Overcast
4:12 AM 30.2 °F 21.9 °F 24.8 °F 80% 30.17 in 9.0 mi NNW 9.2 mph - 0.00 in Snow Light Snow
4:19 AM 30.2 °F 21.9 °F 24.8 °F 80% 30.17 in 9.0 mi NNW 9.2 mph - 0.00 in Snow Light Snow
4:33 AM 28.4 °F 18.5 °F 24.8 °F 86% 30.18 in 7.0 mi NNW 11.5 mph - 0.00 in Snow Light Snow
4:53 AM 28.9 °F 19.8 °F 25.0 °F 85% 30.25 in 7.0 mi NNW 10.4 mph - 0.00 in Snow Light Snow
5:53 AM 26.1 °F 14.5 °F 21.0 °F 81% 30.29 in 6.0 mi NNW 13.8 mph - 0.00 in Snow Light Snow
6:53 AM 25.0 °F 14.2 °F 19.0 °F 78% 30.30 in 10.0 mi NNW 11.5 mph - 0.00 in   Mostly Cloudy
7:53 AM 24.1 °F 17.0 °F 17.1 °F 75% 30.34 in 10.0 mi WNW 5.8 mph - N/A   Clear
8:53 AM 25.0 °F 18.1 °F 17.1 °F 72% 30.35 in 10.0 mi WNW 5.8 mph - N/A   Partly Cloudy
9:53 AM 26.1 °F 14.5 °F 16.0 °F 66% 30.36 in 10.0 mi WNW 13.8 mph - N/A   Scattered Clouds
10:53 AM 27.0 °F 18.0 °F 15.1 °F 61% 30.37 in 10.0 mi WNW 9.2 mph 17.3 mph N/A   Scattered Clouds
11:53 AM 27.0 °F 16.1 °F 10.9 °F 51% 30.36 in 10.0 mi West 12.7 mph 18.4 mph N/A   Partly Cloudy
12:53 PM 28.0 °F 18.6 °F 10.0 °F 47% 30.35 in 10.0 mi NW 10.4 mph 18.4 mph N/A   Partly Cloudy
1:53 PM 30.0 °F 19.1 °F 12.0 °F 47% 30.35 in 10.0 mi North 15.0 mph - N/A   Scattered Clouds
2:53 PM 27.0 °F 18.0 °F 9.0 °F 47% 30.36 in 10.0 mi NNW 9.2 mph - N/A   Partly Cloudy
3:53 PM 27.0 °F 18.0 °F 10.9 °F 51% 30.37 in 10.0 mi NNW 9.2 mph - N/A   Clear
4:53 PM 24.8 °F 20.5 °F 10.4 °F 54% 30.32 in 10.0 mi NNW 3.5 mph - N/A   Clear
5:53 PM 24.1 °F 18.2 °F 10.0 °F 55% 30.41 in 10.0 mi WNW 4.6 mph - N/A   Clear
6:53 PM 23.0 °F 18.4 °F 9.0 °F 55% 30.43 in 10.0 mi WNW 3.5 mph - N/A   Clear
7:53 PM 23.0 °F 18.4 °F 10.0 °F 58% 30.45 in 10.0 mi NW 3.5 mph - N/A   Overcast
8:53 PM 21.9 °F 17.2 °F 10.0 °F 60% 30.46 in 10.0 mi WNW 3.5 mph - N/A   Scattered Clouds
9:53 PM 23.0 °F 18.4 °F 12.0 °F 63% 30.47 in 10.0 mi West 3.5 mph - N/A   Overcast
10:53 PM 23.0 °F 15.8 °F 12.9 °F 65% 30.48 in 10.0 mi West 5.8 mph - N/A   Overcast
11:53 PM 21.0 °F 16.2 °F 12.9 °F 71% 30.50 in 10.0 mi WSW 3.5 mph - N/A   Clear